TimeAKST,TemperatureF,Dew PointF,Humidity,Sea Level PressureIn,VisibilityMPH,Wind Direction,Wind SpeedMPH,Gust SpeedMPH,PrecipitationIn,Events,Conditions,WindDirDegrees,DateUTC
12:16 AM,35.6,32.0,87,29.91,10.0,ESE,8.1,-,0.01,,Overcast,110,2013-01-02 09:16:00
12:36 AM,35.6,30.2,81,29.90,10.0,ESE,10.4,-,0.03,,Overcast,110,2013-01-02 09:36:00
12:56 AM,35.6,32.0,87,29.91,10.0,ESE,8.1,-,0.05,,Overcast,110,2013-01-02 09:56:00
1:16 AM,35.6,30.2,81,29.90,9.0,East,8.1,-,0.03,,Overcast,100,2013-01-02 10:16:00
1:36 AM,33.8,30.2,87,29.90,8.0,East,5.8,-,0.05,,Overcast,100,2013-01-02 10:36:00
1:56 AM,33.8,30.2,87,29.90,8.0,East,4.6,-,0.08,,Overcast,100,2013-01-02 10:56:00
2:16 AM,33.8,30.2,87,29.90,7.0,East,5.8,-,0.03,,Overcast,100,2013-01-02 11:16:00
2:36 AM,33.8,30.2,87,29.90,8.0,East,6.9,-,0.06,,Overcast,100,2013-01-02 11:36:00
2:56 AM,33.8,30.2,87,29.90,9.0,ESE,5.8,-,0.09,,Overcast,110,2013-01-02 11:56:00
3:16 AM,33.8,30.2,87,29.90,10.0,ESE,5.8,-,0.02,,Overcast,110,2013-01-02 12:16:00
3:36 AM,33.8,30.2,87,29.90,8.0,East,3.5,-,0.04,,Overcast,100,2013-01-02 12:36:00
3:56 AM,33.8,30.2,87,29.90,9.0,East,3.5,-,0.07,,Overcast,100,2013-01-02 12:56:00
4:16 AM,33.8,30.2,87,29.89,6.0,ESE,3.5,-,0.02,,Overcast,110,2013-01-02 13:16:00
4:36 AM,33.8,30.2,87,29.89,6.0,East,4.6,-,0.05,,Overcast,90,2013-01-02 13:36:00
4:56 AM,33.8,30.2,87,29.88,9.0,Calm,Calm,-,0.07,,Overcast,0,2013-01-02 13:56:00
5:16 AM,33.8,30.2,87,29.88,7.0,Calm,Calm,-,0.02,,Overcast,0,2013-01-02 14:16:00
5:36 AM,33.8,30.2,87,29.88,8.0,Calm,Calm,-,0.04,,Overcast,0,2013-01-02 14:36:00
5:56 AM,33.8,28.4,81,29.88,7.0,Calm,Calm,-,0.05,,Overcast,0,2013-01-02 14:56:00
6:16 AM,32.0,30.2,93,29.88,5.0,Calm,Calm,-,0.01,,Overcast,0,2013-01-02 15:16:00
6:36 AM,32.0,28.4,87,29.87,6.0,Calm,Calm,-,0.02,,Overcast,0,2013-01-02 15:36:00
6:56 AM,33.8,30.2,87,29.87,7.0,Calm,Calm,-,0.05,,Overcast,0,2013-01-02 15:56:00
7:16 AM,33.8,30.2,87,29.86,6.0,East,5.8,-,0.02,,Overcast,90,2013-01-02 16:16:00
7:36 AM,33.8,30.2,87,29.86,5.0,East,6.9,-,0.06,,Overcast,80,2013-01-02 16:36:00
7:56 AM,33.8,30.2,87,29.86,7.0,East,4.6,-,0.09,,Overcast,80,2013-01-02 16:56:00
8:16 AM,33.8,30.2,87,29.86,7.0,East,5.8,-,0.03,,Overcast,90,2013-01-02 17:16:00
8:36 AM,33.8,30.2,87,29.86,10.0,East,6.9,-,0.05,,Overcast,100,2013-01-02 17:36:00
8:56 AM,33.8,32.0,93,29.85,10.0,East,10.4,-,0.07,,Overcast,100,2013-01-02 17:56:00
9:16 AM,35.6,30.2,81,29.86,10.0,East,5.8,-,0.01,,Overcast,100,2013-01-02 18:16:00
9:36 AM,33.8,30.2,87,29.87,10.0,Calm,Calm,-,0.02,,Overcast,0,2013-01-02 18:36:00
9:56 AM,33.8,30.2,87,29.88,10.0,Calm,Calm,-,0.02,,Overcast,0,2013-01-02 18:56:00
10:16 AM,33.8,30.2,87,29.88,10.0,NW,4.6,-,N/A,,Overcast,320,2013-01-02 19:16:00
10:36 AM,33.8,30.2,87,29.88,10.0,Calm,Calm,-,0.01,,Overcast,0,2013-01-02 19:36:00
10:56 AM,33.8,30.2,87,29.87,10.0,Calm,Calm,-,0.01,,Overcast,0,2013-01-02 19:56:00
11:16 AM,33.8,30.2,87,29.87,7.0,Calm,Calm,-,N/A,,Overcast,0,2013-01-02 20:16:00
11:36 AM,33.8,30.2,87,29.86,5.0,East,3.5,-,N/A,,Overcast,80,2013-01-02 20:36:00
11:56 AM,33.8,32.0,93,29.86,9.0,East,9.2,-,N/A,,Overcast,90,2013-01-02 20:56:00
12:16 PM,33.8,30.2,87,29.86,10.0,East,6.9,-,N/A,,Overcast,80,2013-01-02 21:16:00
12:36 PM,33.8,32.0,93,29.87,10.0,ENE,6.9,-,N/A,,Overcast,70,2013-01-02 21:36:00
12:56 PM,33.8,30.2,87,29.87,10.0,ENE,3.5,-,N/A,,Overcast,70,2013-01-02 21:56:00
1:16 PM,33.8,30.2,87,29.87,10.0,Calm,Calm,-,N/A,,Overcast,0,2013-01-02 22:16:00
1:36 PM,33.8,30.2,87,29.87,10.0,Calm,Calm,-,N/A,,Overcast,0,2013-01-02 22:36:00
1:56 PM,35.6,32.0,87,29.88,10.0,Calm,Calm,-,N/A,,Overcast,0,2013-01-02 22:56:00
2:16 PM,35.6,32.0,87,29.88,3.0,Calm,Calm,-,0.01,,Overcast,0,2013-01-02 23:16:00
2:36 PM,33.8,30.2,87,29.89,10.0,Calm,Calm,-,0.01,,Overcast,0,2013-01-02 23:36:00
2:56 PM,33.8,30.2,87,29.89,10.0,Calm,Calm,-,0.01,,Overcast,0,2013-01-02 23:56:00
3:16 PM,33.8,32.0,93,29.91,3.0,Calm,Calm,-,N/A,,Overcast,0,2013-01-03 00:16:00
3:36 PM,33.8,32.0,93,29.91,2.0,Calm,Calm,-,N/A,,Overcast,0,2013-01-03 00:36:00
3:56 PM,33.8,30.2,87,29.91,0.8,ENE,3.5,-,N/A,,Overcast,70,2013-01-03 00:56:00
4:36 PM,33.8,30.2,87,29.92,5.0,ENE,3.5,-,N/A,,Overcast,70,2013-01-03 01:36:00
4:56 PM,33.8,30.2,87,29.93,10.0,ENE,3.5,-,N/A,,Overcast,70,2013-01-03 01:56:00
5:16 PM,32.0,30.2,93,29.93,5.0,ENE,3.5,-,N/A,,Overcast,70,2013-01-03 02:16:00
5:36 PM,32.0,30.2,93,29.93,1.5,ENE,3.5,-,N/A,,Overcast,70,2013-01-03 02:36:00
5:56 PM,32.0,30.2,93,29.94,1.0,Calm,Calm,-,N/A,,Overcast,0,2013-01-03 02:56:00
6:16 PM,32.0,30.2,93,29.94,0.5,Calm,Calm,-,N/A,,Overcast,0,2013-01-03 03:16:00
6:36 PM,32.0,30.2,93,29.94,0.5,ENE,3.5,-,N/A,,Overcast,70,2013-01-03 03:36:00
6:56 PM,32.0,28.4,87,29.95,3.0,ENE,3.5,-,N/A,,Overcast,70,2013-01-03 03:56:00
7:16 PM,32.0,30.2,93,29.96,1.2,East,3.5,-,N/A,,Overcast,80,2013-01-03 04:16:00
7:36 PM,32.0,30.2,93,29.97,1.2,East,4.6,-,N/A,,Overcast,80,2013-01-03 04:36:00
7:56 PM,32.0,28.4,87,29.98,8.0,East,3.5,-,N/A,,Mostly Cloudy,80,2013-01-03 04:56:00
8:16 PM,32.0,28.4,87,29.98,1.5,Calm,Calm,-,N/A,,Overcast,0,2013-01-03 05:16:00
8:36 PM,30.2,28.4,93,29.99,0.8,East,3.5,-,N/A,,Overcast,80,2013-01-03 05:36:00
8:56 PM,30.2,28.4,93,30.00,10.0,East,4.6,-,N/A,,Mostly Cloudy,80,2013-01-03 05:56:00
9:16 PM,30.2,28.4,93,30.00,10.0,East,3.5,-,N/A,,Clear,90,2013-01-03 06:16:00
9:36 PM,32.0,28.4,87,30.00,10.0,Calm,Calm,-,N/A,,Clear,0,2013-01-03 06:36:00
9:56 PM,30.2,28.4,93,30.01,2.5,Calm,Calm,-,N/A,,Mostly Cloudy,0,2013-01-03 06:56:00
10:16 PM,30.2,28.4,93,30.02,4.0,Calm,Calm,-,N/A,,Overcast,0,2013-01-03 07:16:00
10:36 PM,30.2,28.4,93,30.03,10.0,Calm,Calm,-,N/A,,Overcast,0,2013-01-03 07:36:00
10:56 PM,30.2,28.4,93,30.03,10.0,Calm,Calm,-,N/A,,Overcast,0,2013-01-03 07:56:00
11:16 PM,32.0,28.4,87,30.03,10.0,Calm,Calm,-,N/A,,Overcast,0,2013-01-03 08:16:00
11:36 PM,32.0,28.4,87,30.03,6.0,Calm,Calm,-,N/A,,Overcast,0,2013-01-03 08:36:00
11:56 PM,32.0,30.2,93,30.04,10.0,Calm,Calm,-,N/A,,Overcast,0,2013-01-03 08:56:00